Flag for Slovenia Weather past 2 weeks in Ljubljana, Slovenia

Now
32 °F

Snow flurries. Overcast.


Feels Like: 32 °F
Forecast: 23 / 39 °F
Wind: No wind

Location: Ljubljana / Bezigrad

Current Time: Jan 29, 2015 at 12:11:06 PM

Latest Report: Jan 29, 2015 at 11:00 AM


Visibility: 19 mi

Pressure: 29.65 "Hg

Humidity: 75%

Dew point: 25 °F

Location of LjubljanaLocation

Historic Weather in Ljubljana — Graph

°F

Ljubljana temperature yesterday

Maximum temperature yesterday: 41 °F (at 4:00 PM)
Minimum temperature yesterday: 23 °F (at 5:00 AM)
Average temperature yesterday: 30 °F

Past Weeks' High & Low Weather Summary

 TemperatureHumidityPressure
High55 °F (Jan 17, 3:00 PM)100% (Jan 15, 7:00 AM)30.33 "Hg (Jan 15, 7:00 AM)
Low23 °F (Jan 28, 5:00 AM)33% (Jan 18, 1:00 PM)29.67 "Hg (Jan 29, 10:00 AM)
Average39 °F82%30.01 "Hg
* Reported Jan 14 10:00 AM — Jan 29 10:00 AM, Ljubljana, Weather by CustomWeather, © 2014

Note: Actual official high and low records may vary slightly from our data, if they occured in-between our weather recording intervals... More about our weather records

Advertising

Ljubljana weather history for previous 24 hours

 ConditionsComfort  
Time TempWeatherWind HumidityBarometerVisibility
10:00 AM
Jan 29
30 °FOvercast.1 mph80%29.67 "Hg16 mi
9:00 AM29 °FOvercast.1 mph85%29.68 "Hg12 mi
8:00 AM28 °FOvercast.1 mph87%29.68 "Hg12 mi
7:00 AM28 °FOvercast.1 mph89%29.68 "Hg9 mi
6:00 AM27 °FOvercast.1 mph88%29.70 "Hg9 mi
5:00 AM27 °FOvercast.1 mph89%29.74 "Hg9 mi
3:00 AM27 °FChilly.2 mph84%29.79 "HgN/A
2:00 AM27 °FChilly.No wind85%29.83 "HgN/A
1:00 AM28 °FChilly.1 mph83%29.84 "HgN/A
12:00 AM29 °FChilly.1 mph81%29.89 "HgN/A
11:00 PM
Jan 28
28 °FChilly.No wind85%29.92 "HgN/A
10:00 PM29 °FPassing clouds.No wind82%29.94 "Hg19 mi
9:00 PM30 °FPassing clouds.1 mph79%29.97 "Hg19 mi
8:00 PM32 °FPassing clouds.No wind72%29.98 "Hg19 mi
7:00 PM34 °FPassing clouds.1 mph64%30.01 "Hg17 mi
6:00 PM35 °FPassing clouds.1 mph59%30.01 "Hg17 mi
5:00 PM37 °FPassing clouds.1 mph54%30.00 "Hg17 mi
4:00 PM41 °FPassing clouds.2 mph48%29.99 "Hg17 mi
3:00 PM41 °FPassing clouds.2 mph51%30.01 "Hg17 mi
2:00 PM41 °FPassing clouds.1 mph55%30.03 "Hg17 mi
1:00 PM38 °FPassing clouds.1 mph61%30.06 "Hg12 mi
12:00 PM33 °FSunny.1 mph78%30.11 "Hg12 mi
Weather by CustomWeather, © 2014

See weather overviewHow to use our weather pages